GCFIZ EGFF-EGBJ

Flight info

Callsign GCFIZ
Flight time 1h 0m
Altitude 3000
Route EGFF EGTAF NEATH ABERGAVENNY EG34 EGBJ
Aircraft C172/L-G/L

Departure

Time 2026-04-29 12:23
Airport Cardiff International Airport (EGFF)

Arrival

Time 2026-04-29 13:24
Airport Gloucestershire Airport (EGBJ)
Time Latitude Longitude Altitude Speed Heading
2026-04-29 12:13 51.39433 -3.34565 224 ft 0 kts 313°
2026-04-29 12:21 51.39435 -3.34578 224 ft 9 kts 268°
2026-04-29 12:21 51.39484 -3.34672 224 ft 15 kts 296°
2026-04-29 12:21 51.39456 -3.34894 224 ft 19 kts 251°
2026-04-29 12:21 51.39500 -3.34982 224 ft 22 kts 21°
2026-04-29 12:22 51.39673 -3.34862 224 ft 9 kts 24°
2026-04-29 12:22 51.39676 -3.34859 224 ft 0 kts 33°
2026-04-29 12:22 51.39773 -3.34759 224 ft 25 kts 85°
2026-04-29 12:22 51.39627 -3.34224 236 ft 69 kts 119°
2026-04-29 12:23 51.39395 -3.33490 416 ft 71 kts 120°
2026-04-29 12:23 51.39351 -3.32689 589 ft 76 kts 74°
2026-04-29 12:23 51.39703 -3.32012 765 ft 82 kts 29°
2026-04-29 12:23 51.40277 -3.31858 939 ft 87 kts
2026-04-29 12:24 51.40854 -3.32181 1108 ft 91 kts 330°
2026-04-29 12:24 51.41396 -3.32752 1285 ft 94 kts 327°
2026-04-29 12:24 51.41944 -3.33357 1462 ft 97 kts 327°
2026-04-29 12:24 51.42509 -3.33993 1640 ft 98 kts 324°
2026-04-29 12:25 51.43050 -3.34678 1815 ft 99 kts 323°
2026-04-29 12:25 51.43587 -3.35368 1988 ft 100 kts 323°
2026-04-29 12:25 51.44675 -3.36771 2338 ft 100 kts 323°
2026-04-29 12:26 51.45213 -3.37468 2509 ft 100 kts 323°
2026-04-29 12:26 51.45802 -3.38229 2518 ft 114 kts 323°
2026-04-29 12:26 51.46435 -3.39051 2515 ft 122 kts 322°
2026-04-29 12:26 51.46888 -3.40219 2501 ft 125 kts 289°
2026-04-29 12:27 51.47321 -3.41405 2523 ft 125 kts 319°
2026-04-29 12:27 51.47996 -3.42332 2515 ft 127 kts 323°
2026-04-29 12:27 51.48736 -3.43127 2514 ft 128 kts 329°
2026-04-29 12:27 51.49497 -3.43890 2513 ft 128 kts 329°
2026-04-29 12:28 51.50250 -3.44638 2512 ft 128 kts 329°
2026-04-29 12:28 51.51013 -3.45397 2512 ft 128 kts 329°
2026-04-29 12:28 51.51771 -3.46152 2513 ft 128 kts 329°
2026-04-29 12:28 51.52530 -3.46888 2513 ft 128 kts 332°
2026-04-29 12:29 51.53322 -3.47565 2513 ft 128 kts 333°
2026-04-29 12:29 51.54110 -3.48230 2512 ft 128 kts 333°
2026-04-29 12:29 51.54905 -3.48904 2513 ft 128 kts 333°
2026-04-29 12:29 51.55701 -3.49578 2513 ft 128 kts 333°
2026-04-29 12:30 51.56390 -3.50465 2508 ft 128 kts 304°
2026-04-29 12:30 51.56860 -3.51677 2512 ft 128 kts 301°
2026-04-29 12:30 51.57318 -3.52927 2513 ft 128 kts 301°
2026-04-29 12:30 51.57771 -3.54171 2513 ft 128 kts 301°
2026-04-29 12:31 51.58218 -3.55397 2513 ft 128 kts 301°
2026-04-29 12:31 51.58668 -3.56638 2513 ft 128 kts 301°
2026-04-29 12:31 51.59111 -3.57893 2513 ft 128 kts 300°
2026-04-29 12:31 51.59547 -3.59147 2513 ft 128 kts 300°
2026-04-29 12:32 51.59986 -3.60412 2513 ft 128 kts 300°
2026-04-29 12:32 51.60424 -3.61674 2513 ft 128 kts 300°
2026-04-29 12:32 51.60863 -3.62940 2512 ft 128 kts 299°
2026-04-29 12:32 51.61300 -3.64202 2512 ft 128 kts 299°
2026-04-29 12:33 51.61670 -3.65506 2513 ft 128 kts 292°
2026-04-29 12:33 51.62007 -3.66826 2513 ft 128 kts 291°
2026-04-29 12:33 51.62326 -3.68183 2510 ft 128 kts 282°
2026-04-29 12:33 51.62290 -3.69602 2513 ft 128 kts 264°
2026-04-29 12:34 51.62188 -3.71054 2512 ft 128 kts 263°
2026-04-29 12:34 51.62175 -3.72490 2511 ft 128 kts 272°
2026-04-29 12:34 51.62274 -3.73920 2508 ft 128 kts 283°
2026-04-29 12:34 51.62804 -3.75055 2508 ft 127 kts 322°
2026-04-29 12:35 51.63518 -3.75917 2512 ft 127 kts 321°
2026-04-29 12:35 51.64188 -3.76849 2513 ft 128 kts 316°
2026-04-29 12:35 51.64831 -3.77858 2513 ft 128 kts 314°
2026-04-29 12:35 51.65447 -3.78883 2512 ft 128 kts 313°
2026-04-29 12:36 51.66215 -3.79528 2504 ft 128 kts 354°
2026-04-29 12:36 51.67052 -3.79126 2504 ft 127 kts 37°
2026-04-29 12:36 51.67497 -3.77915 2508 ft 127 kts 76°
2026-04-29 12:36 51.67716 -3.76552 2509 ft 127 kts 60°
2026-04-29 12:37 51.68208 -3.75355 2512 ft 127 kts 61°
2026-04-29 12:37 51.68633 -3.74097 2512 ft 128 kts 61°
2026-04-29 12:37 51.69053 -3.72838 2512 ft 128 kts 61°
2026-04-29 12:37 51.69478 -3.71565 2512 ft 128 kts 61°
2026-04-29 12:38 51.69900 -3.70305 2512 ft 128 kts 61°
2026-04-29 12:38 51.70324 -3.69038 2512 ft 128 kts 61°
2026-04-29 12:38 51.70746 -3.67776 2512 ft 128 kts 61°
2026-04-29 12:38 51.71168 -3.66515 2512 ft 128 kts 61°
2026-04-29 12:39 51.71588 -3.65261 2512 ft 128 kts 60°
2026-04-29 12:39 51.72015 -3.63987 2512 ft 128 kts 60°
2026-04-29 12:39 51.72439 -3.62723 2511 ft 127 kts 60°
2026-04-29 12:39 51.72857 -3.61469 2511 ft 127 kts 60°
2026-04-29 12:40 51.73246 -3.60173 2510 ft 127 kts 64°
2026-04-29 12:40 51.73579 -3.58856 2510 ft 127 kts 68°
2026-04-29 12:40 51.73889 -3.57511 2511 ft 127 kts 68°
2026-04-29 12:40 51.74193 -3.56185 2512 ft 127 kts 69°
2026-04-29 12:41 51.74508 -3.54827 2512 ft 127 kts 68°
2026-04-29 12:41 51.74811 -3.53485 2512 ft 128 kts 71°
2026-04-29 12:41 51.75081 -3.52124 2512 ft 128 kts 71°
2026-04-29 12:41 51.75349 -3.50758 2512 ft 128 kts 71°
2026-04-29 12:42 51.75622 -3.49362 2512 ft 128 kts 71°
2026-04-29 12:42 51.75867 -3.47994 2511 ft 128 kts 74°
2026-04-29 12:42 51.76095 -3.46590 2512 ft 128 kts 74°
2026-04-29 12:42 51.76319 -3.45202 2512 ft 127 kts 73°
2026-04-29 12:43 51.76541 -3.43823 2512 ft 127 kts 73°
2026-04-29 12:43 51.76766 -3.42433 2512 ft 127 kts 73°
2026-04-29 12:43 51.76989 -3.41048 2512 ft 127 kts 73°
2026-04-29 12:43 51.77213 -3.39665 2512 ft 127 kts 73°
2026-04-29 12:44 51.77438 -3.38279 2512 ft 127 kts 73°
2026-04-29 12:44 51.77663 -3.36886 2512 ft 127 kts 73°
2026-04-29 12:44 51.77896 -3.35457 2512 ft 127 kts 73°
2026-04-29 12:44 51.78113 -3.34075 2510 ft 127 kts 77°
2026-04-29 12:45 51.78284 -3.32672 2511 ft 127 kts 78°
2026-04-29 12:45 51.78449 -3.31270 2512 ft 127 kts 78°
2026-04-29 12:45 51.78618 -3.29852 2512 ft 128 kts 78°
2026-04-29 12:45 51.78786 -3.28440 2512 ft 128 kts 78°
2026-04-29 12:46 51.78968 -3.27046 2513 ft 128 kts 75°
2026-04-29 12:46 51.79195 -3.25648 2512 ft 128 kts 74°
2026-04-29 12:46 51.79426 -3.24249 2512 ft 128 kts 74°
2026-04-29 12:46 51.79657 -3.22852 2512 ft 128 kts 74°
2026-04-29 12:47 51.79887 -3.21468 2512 ft 128 kts 74°
2026-04-29 12:47 51.80118 -3.20076 2512 ft 128 kts 74°
2026-04-29 12:47 51.80348 -3.18690 2512 ft 128 kts 74°
2026-04-29 12:47 51.80579 -3.17301 2512 ft 128 kts 74°
2026-04-29 12:48 51.80779 -3.15895 2502 ft 128 kts 86°
2026-04-29 12:48 51.80673 -3.14481 2510 ft 127 kts 98°
2026-04-29 12:48 51.80515 -3.13054 2512 ft 128 kts 99°
2026-04-29 12:48 51.80460 -3.11619 2515 ft 127 kts 87°
2026-04-29 12:49 51.80555 -3.10192 2513 ft 128 kts 80°
2026-04-29 12:49 51.80738 -3.08786 2513 ft 128 kts 76°
2026-04-29 12:49 51.80968 -3.07386 2513 ft 128 kts 73°
2026-04-29 12:49 51.81216 -3.06009 2512 ft 128 kts 73°
2026-04-29 12:50 51.81475 -3.04627 2512 ft 128 kts 72°
2026-04-29 12:50 51.81739 -3.03241 2512 ft 128 kts 72°
2026-04-29 12:50 51.82034 -3.01884 2514 ft 128 kts 64°
2026-04-29 12:50 51.82432 -3.00592 2513 ft 128 kts 62°
2026-04-29 12:51 51.82848 -2.99332 2512 ft 128 kts 61°
2026-04-29 12:51 51.83271 -2.98070 2512 ft 128 kts 61°
2026-04-29 12:51 51.83703 -2.96789 2513 ft 128 kts 61°
2026-04-29 12:51 51.84130 -2.95529 2512 ft 128 kts 61°
2026-04-29 12:52 51.84553 -2.94274 2512 ft 128 kts 61°
2026-04-29 12:52 51.84974 -2.93007 2512 ft 128 kts 62°
2026-04-29 12:52 51.85399 -2.91736 2513 ft 128 kts 61°
2026-04-29 12:52 51.85825 -2.90470 2512 ft 128 kts 61°
2026-04-29 12:53 51.86258 -2.89190 2512 ft 128 kts 61°
2026-04-29 12:53 51.86682 -2.87934 2512 ft 128 kts 61°
2026-04-29 12:53 51.87110 -2.86669 2512 ft 128 kts 61°
2026-04-29 12:53 51.87537 -2.85391 2416 ft 125 kts 62°
2026-04-29 12:54 51.87935 -2.84186 2287 ft 118 kts 62°
2026-04-29 12:54 51.88311 -2.83053 2157 ft 112 kts 62°
2026-04-29 12:54 51.88678 -2.81957 2028 ft 108 kts 62°
2026-04-29 12:54 51.89023 -2.80932 1990 ft 96 kts 62°
2026-04-29 12:55 51.89325 -2.80040 1993 ft 84 kts 61°
2026-04-29 12:55 51.89601 -2.79233 2002 ft 83 kts 60°
2026-04-29 12:55 51.89887 -2.78399 2005 ft 86 kts 60°
2026-04-29 12:55 51.90183 -2.77527 2005 ft 89 kts 61°
2026-04-29 12:56 51.90482 -2.76637 2004 ft 91 kts 61°
2026-04-29 12:56 51.90791 -2.75717 2004 ft 93 kts 61°
2026-04-29 12:56 51.91106 -2.74778 2004 ft 95 kts 61°
2026-04-29 12:56 51.91421 -2.73837 2003 ft 96 kts 61°
2026-04-29 12:57 51.91741 -2.72882 2003 ft 97 kts 61°
2026-04-29 12:57 51.92069 -2.71903 2003 ft 98 kts 61°
2026-04-29 12:57 51.92396 -2.70933 2003 ft 98 kts 61°
2026-04-29 12:57 51.92727 -2.69949 2003 ft 99 kts 61°
2026-04-29 12:58 51.93128 -2.69052 2003 ft 99 kts 49°
2026-04-29 12:58 51.93581 -2.68208 2003 ft 99 kts 46°
2026-04-29 12:58 51.94070 -2.67426 2003 ft 99 kts 43°
2026-04-29 12:58 51.94572 -2.66646 2003 ft 99 kts 43°
2026-04-29 12:59 51.95073 -2.65869 2003 ft 99 kts 43°
2026-04-29 12:59 51.95570 -2.65099 2003 ft 99 kts 43°
2026-04-29 12:59 51.96075 -2.64319 2003 ft 100 kts 43°
2026-04-29 12:59 51.96594 -2.63515 2005 ft 105 kts 43°
2026-04-29 13:00 51.97133 -2.62681 2004 ft 108 kts 43°
2026-04-29 13:00 51.97681 -2.61834 2004 ft 110 kts 43°
2026-04-29 13:00 51.98243 -2.60968 2003 ft 112 kts 43°
2026-04-29 13:00 51.98806 -2.60068 2003 ft 113 kts 46°
2026-04-29 13:01 51.99340 -2.59125 2003 ft 113 kts 48°
2026-04-29 13:01 51.99811 -2.58103 2002 ft 114 kts 56°
2026-04-29 13:01 52.00234 -2.57008 2004 ft 116 kts 57°
2026-04-29 13:01 52.00646 -2.55872 2004 ft 118 kts 59°
2026-04-29 13:02 52.01062 -2.54704 2003 ft 120 kts 59°
2026-04-29 13:02 52.01471 -2.53550 2001 ft 115 kts 59°
2026-04-29 13:02 52.01839 -2.52402 1998 ft 112 kts 74°
2026-04-29 13:02 52.01730 -2.51200 2000 ft 110 kts 120°
2026-04-29 13:03 52.01181 -2.50359 2003 ft 109 kts 145°
2026-04-29 13:03 52.00561 -2.49675 2003 ft 108 kts 145°
2026-04-29 13:03 51.99923 -2.48972 2003 ft 110 kts 146°
2026-04-29 13:03 51.99279 -2.48264 1905 ft 109 kts 146°
2026-04-29 13:04 51.98661 -2.47582 1732 ft 106 kts 148°
2026-04-29 13:04 51.98170 -2.46746 1538 ft 105 kts 107°
2026-04-29 13:04 51.98356 -2.45662 1350 ft 103 kts 52°
2026-04-29 13:04 51.98954 -2.45030 1162 ft 103 kts 10°
2026-04-29 13:05 51.99661 -2.45274 992 ft 108 kts 328°
2026-04-29 13:05 52.00255 -2.45984 879 ft 99 kts 321°
2026-04-29 13:05 52.00796 -2.46607 902 ft 92 kts 327°
2026-04-29 13:05 52.01317 -2.47162 906 ft 89 kts 314°
2026-04-29 13:06 52.01530 -2.48057 910 ft 85 kts 265°
2026-04-29 13:06 52.01305 -2.48938 911 ft 83 kts 234°
2026-04-29 13:06 52.00829 -2.49421 885 ft 84 kts 188°
2026-04-29 13:06 52.00200 -2.49427 692 ft 96 kts 199°
2026-04-29 13:07 51.99635 -2.49598 656 ft 75 kts 141°
2026-04-29 13:07 51.99720 -2.48835 432 ft 82 kts 51°
2026-04-29 13:07 51.99999 -2.48093 297 ft 67 kts 65°
2026-04-29 13:07 52.00173 -2.47486 258 ft 61 kts 69°
2026-04-29 13:08 52.00357 -2.46812 383 ft 69 kts 59°
2026-04-29 13:08 52.00465 -2.46060 571 ft 71 kts 91°
2026-04-29 13:08 52.00323 -2.45294 747 ft 74 kts 128°
2026-04-29 13:08 51.99897 -2.44758 932 ft 80 kts 148°
2026-04-29 13:09 51.99428 -2.44234 1113 ft 85 kts 135°
2026-04-29 13:09 51.99026 -2.43500 1294 ft 89 kts 128°
2026-04-29 13:09 51.98652 -2.42674 1472 ft 93 kts 124°
2026-04-29 13:09 51.98286 -2.41775 1651 ft 96 kts 122°
2026-04-29 13:10 51.97936 -2.40849 1827 ft 98 kts 120°
2026-04-29 13:10 51.97589 -2.39895 2003 ft 99 kts 119°
2026-04-29 13:10 51.97222 -2.38866 2014 ft 114 kts 119°
2026-04-29 13:10 51.96805 -2.37688 2005 ft 123 kts 119°
2026-04-29 13:11 51.96371 -2.36448 2002 ft 126 kts 117°
2026-04-29 13:11 51.95941 -2.35192 1998 ft 123 kts 118°
2026-04-29 13:11 51.95534 -2.34029 1997 ft 115 kts 119°
2026-04-29 13:11 51.95144 -2.32915 1997 ft 110 kts 118°
2026-04-29 13:12 51.94772 -2.31847 1998 ft 107 kts 118°
2026-04-29 13:12 51.94388 -2.30754 1991 ft 93 kts 120°
2026-04-29 13:12 51.94093 -2.29928 1984 ft 73 kts 120°
2026-04-29 13:12 51.93853 -2.29237 1996 ft 69 kts 116°
2026-04-29 13:13 51.93620 -2.28548 2000 ft 70 kts 116°
2026-04-29 13:13 51.93378 -2.27841 2001 ft 72 kts 117°
2026-04-29 13:13 51.93142 -2.27125 2001 ft 73 kts 116°
2026-04-29 13:13 51.92988 -2.26342 2006 ft 73 kts 83°
2026-04-29 13:14 51.93232 -2.25620 2009 ft 74 kts 38°
2026-04-29 13:14 51.93665 -2.25125 2006 ft 78 kts 26°
2026-04-29 13:14 51.94205 -2.25083 2010 ft 81 kts 336°
2026-04-29 13:14 51.94606 -2.25717 2009 ft 84 kts 292°
2026-04-29 13:15 51.94601 -2.26660 2010 ft 86 kts 244°
2026-04-29 13:15 51.94148 -2.27297 2009 ft 88 kts 195°
2026-04-29 13:15 51.93553 -2.27176 2009 ft 89 kts 148°
2026-04-29 13:15 51.93110 -2.26466 2005 ft 91 kts 129°
2026-04-29 13:16 51.92693 -2.25636 2003 ft 95 kts 127°
2026-04-29 13:16 51.92272 -2.24783 2003 ft 100 kts 127°
2026-04-29 13:16 51.91827 -2.23871 2003 ft 103 kts 127°
2026-04-29 13:16 51.91420 -2.22967 1997 ft 95 kts 121°
2026-04-29 13:17 51.91107 -2.22047 1996 ft 89 kts 118°
2026-04-29 13:17 51.90787 -2.21155 2003 ft 94 kts 120°
2026-04-29 13:17 51.90433 -2.20173 2005 ft 102 kts 119°
2026-04-29 13:17 51.90068 -2.19164 2005 ft 104 kts 120°
2026-04-29 13:18 51.89693 -2.18142 2003 ft 105 kts 125°
2026-04-29 13:18 51.89081 -2.17549 1999 ft 105 kts 171°
2026-04-29 13:18 51.88334 -2.17508 1919 ft 111 kts 182°
2026-04-29 13:18 51.87587 -2.17456 1752 ft 107 kts 163°
2026-04-29 13:19 51.87029 -2.16701 1577 ft 105 kts 120°
2026-04-29 13:19 51.86992 -2.15588 1392 ft 104 kts 57°
2026-04-29 13:19 51.87628 -2.15190 1232 ft 101 kts 359°
2026-04-29 13:19 51.88331 -2.15254 1081 ft 100 kts 356°
2026-04-29 13:20 51.89002 -2.15321 1024 ft 89 kts 357°
2026-04-29 13:20 51.89572 -2.15378 1033 ft 78 kts 355°
2026-04-29 13:20 51.90143 -2.15429 1046 ft 87 kts 356°
2026-04-29 13:20 51.90794 -2.15484 1049 ft 100 kts 356°
2026-04-29 13:21 51.91481 -2.15640 1038 ft 97 kts 334°
2026-04-29 13:21 51.91891 -2.16417 1032 ft 85 kts 286°
2026-04-29 13:21 51.91936 -2.17383 1041 ft 83 kts 269°
2026-04-29 13:21 51.91859 -2.18301 1010 ft 86 kts 219°
2026-04-29 13:22 51.91295 -2.18247 1036 ft 82 kts 177°
2026-04-29 13:22 51.90653 -2.18334 935 ft 97 kts 219°
2026-04-29 13:22 51.90433 -2.19350 933 ft 99 kts 259°
2026-04-29 13:22 51.90092 -2.20315 848 ft 103 kts 213°
2026-04-29 13:23 51.89490 -2.20231 617 ft 90 kts 146°
2026-04-29 13:23 51.89236 -2.19439 436 ft 78 kts 89°
2026-04-29 13:23 51.89284 -2.18596 274 ft 71 kts 82°
2026-04-29 13:23 51.89339 -2.17818 142 ft 67 kts 84°
2026-04-29 13:24 51.89384 -2.17150 105 ft 51 kts 86°
2026-04-29 13:24 51.89412 -2.16621 105 ft 43 kts 83°
2026-04-29 13:24 51.89442 -2.16188 105 ft 33 kts 84°
2026-04-29 13:24 51.89439 -2.15984 105 ft 12 kts 123°
2026-04-29 13:25 51.89394 -2.15907 105 ft 10 kts 135°
2026-04-29 13:25 51.89326 -2.15797 105 ft 0 kts 260°